Location: ????????
(55.3975°N, 38.2844°E)
Time: 04:58:30
(UTC+00:00)

BlueWalker 3 - Pass Details

Date: 17 August 2024
Orbit: 476 x 487 km, 53.2° (Epoch: 08 September)

Event Time Altitude Azimuth Distance (km) Brightness Sun altitude
Exits shadow 22:38:57 49° 132° (SE) 641 2.2 -20.1°
Drops below altitude 10° 22:42:07 10° 90° (E) 1,688 4.8 -20.0°
Sets 22:44:19 0° 86° (E) 2,572 5.8 -19.9°
